owner,sensor,date,latitude,longitude,vertical_datum,sea_water_temperature,qcFlag 
WAVCIS,ioos:station:WAVCIS:CSI09:1,2010-05-01T00:00:00Z,29.1015,-89.9782,0.0,22.75,11111222 
WAVCIS,ioos:station:WAVCIS:CSI09:1,2010-05-01T01:00:00Z,29.1015,-89.9782,0.0,22.79,11111222 
WAVCIS,ioos:station:WAVCIS:CSI09:1,2010-05-01T02:00:00Z,29.1015,-89.9782,0.0,22.81,11111222 
WAVCIS,ioos:station:WAVCIS:CSI09:1,2010-05-01T03:00:00Z,29.1015,-89.9782,0.0,22.8,11111222 
WAVCIS,ioos:station:WAVCIS:CSI09:1,2010-05-01T04:00:00Z,29.1015,-89.9782,0.0,22.83,11111222 
WAVCIS,ioos:station:WAVCIS:CSI09:1,2010-05-01T05:00:00Z,29.1015,-89.9782,0.0,22.74,11111222 
WAVCIS,ioos:station:WAVCIS:CSI09:1,2010-05-01T06:00:00Z,29.1015,-89.9782,0.0,22.79,11111222 
WAVCIS,ioos:station:WAVCIS:CSI09:1,2010-05-01T07:00:00Z,29.1015,-89.9782,0.0,22.73,11111222 
WAVCIS,ioos:station:WAVCIS:CSI09:1,2010-05-01T08:00:00Z,29.1015,-89.9782,0.0,22.74,11111222 
WAVCIS,ioos:station:WAVCIS:CSI09:1,2010-05-01T09:00:00Z,29.1015,-89.9782,0.0,22.77,11111222 
WAVCIS,ioos:station:WAVCIS:CSI09:1,2010-05-01T10:00:00Z,29.1015,-89.9782,0.0,22.84,11111222 
WAVCIS,ioos:station:WAVCIS:CSI09:1,2010-05-01T11:00:00Z,29.1015,-89.9782,0.0,22.86,11111222 
WAVCIS,ioos:station:WAVCIS:CSI09:1,2010-05-01T12:00:00Z,29.1015,-89.9782,0.0,22.89,11111222 
WAVCIS,ioos:station:WAVCIS:CSI09:1,2010-05-01T13:00:00Z,29.1015,-89.9782,0.0,22.89,11111222 
WAVCIS,ioos:station:WAVCIS:CSI09:1,2010-05-01T14:00:00Z,29.1015,-89.9782,0.0,22.93,11111222 
WAVCIS,ioos:station:WAVCIS:CSI09:1,2010-05-01T15:00:00Z,29.1015,-89.9782,0.0,22.98,11111222 
WAVCIS,ioos:station:WAVCIS:CSI09:1,2010-05-01T16:00:00Z,29.1015,-89.9782,0.0,23.04,11111222 
WAVCIS,ioos:station:WAVCIS:CSI09:1,2010-05-01T17:00:00Z,29.1015,-89.9782,0.0,23.15,11111222 
WAVCIS,ioos:station:WAVCIS:CSI09:1,2010-05-01T18:00:00Z,29.1015,-89.9782,0.0,23.18,11111222 
WAVCIS,ioos:station:WAVCIS:CSI09:1,2010-05-01T19:00:00Z,29.1015,-89.9782,0.0,23.25,11111222 
WAVCIS,ioos:station:WAVCIS:CSI09:1,2010-05-01T20:00:00Z,29.1015,-89.9782,0.0,23.25,11111222 
WAVCIS,ioos:station:WAVCIS:CSI09:1,2010-05-01T21:00:00Z,29.1015,-89.9782,0.0,23.21,11111222 
WAVCIS,ioos:station:WAVCIS:CSI09:1,2010-05-01T22:00:00Z,29.1015,-89.9782,0.0,23.16,11111222 
WAVCIS,ioos:station:WAVCIS:CSI09:1,2010-05-01T23:00:00Z,29.1015,-89.9782,0.0,23.2,11111222 
WAVCIS,ioos:station:WAVCIS:CSI09:1,2010-05-02T00:00:00Z,29.1015,-89.9782,0.0,23.27,11111222 
WAVCIS,ioos:station:WAVCIS:CSI09:1,2010-05-02T01:00:00Z,29.1015,-89.9782,0.0,23.29,11111222 
WAVCIS,ioos:station:WAVCIS:CSI09:1,2010-05-02T02:00:00Z,29.1015,-89.9782,0.0,23.28,11111222 
WAVCIS,ioos:station:WAVCIS:CSI09:1,2010-05-02T03:00:00Z,29.1015,-89.9782,0.0,23.3,11111222 
WAVCIS,ioos:station:WAVCIS:CSI09:1,2010-05-02T04:00:00Z,29.1015,-89.9782,0.0,23.3,11111222 
WAVCIS,ioos:station:WAVCIS:CSI09:1,2010-05-02T05:00:00Z,29.1015,-89.9782,0.0,23.32,11111222 
WAVCIS,ioos:station:WAVCIS:CSI09:1,2010-05-02T06:00:00Z,29.1015,-89.9782,0.0,23.32,11111222 
WAVCIS,ioos:station:WAVCIS:CSI09:1,2010-05-02T07:00:00Z,29.1015,-89.9782,0.0,23.32,11111222 
WAVCIS,ioos:station:WAVCIS:CSI09:1,2010-05-02T08:00:00Z,29.1015,-89.9782,0.0,23.32,11111222 
WAVCIS,ioos:station:WAVCIS:CSI09:1,2010-05-02T09:00:00Z,29.1015,-89.9782,0.0,23.3,11111222 
WAVCIS,ioos:station:WAVCIS:CSI09:1,2010-05-02T10:00:00Z,29.1015,-89.9782,0.0,23.29,11111222 
WAVCIS,ioos:station:WAVCIS:CSI09:1,2010-05-02T11:00:00Z,29.1015,-89.9782,0.0,23.3,11111222 
WAVCIS,ioos:station:WAVCIS:CSI09:1,2010-05-02T12:00:00Z,29.1015,-89.9782,0.0,23.3,11111222 
WAVCIS,ioos:station:WAVCIS:CSI09:1,2010-05-02T13:00:00Z,29.1015,-89.9782,0.0,23.33,11111222 
WAVCIS,ioos:station:WAVCIS:CSI09:1,2010-05-02T14:00:00Z,29.1015,-89.9782,0.0,23.31,11111222 
WAVCIS,ioos:station:WAVCIS:CSI09:1,2010-05-02T15:00:00Z,29.1015,-89.9782,0.0,23.31,11111222 
WAVCIS,ioos:station:WAVCIS:CSI09:1,2010-05-02T16:00:00Z,29.1015,-89.9782,0.0,23.31,11111222 
WAVCIS,ioos:station:WAVCIS:CSI09:1,2010-05-02T17:00:00Z,29.1015,-89.9782,0.0,23.29,11111222 
WAVCIS,ioos:station:WAVCIS:CSI09:1,2010-05-02T18:00:00Z,29.1015,-89.9782,0.0,23.33,11111222 
WAVCIS,ioos:station:WAVCIS:CSI09:1,2010-05-02T19:00:00Z,29.1015,-89.9782,0.0,23.33,11111222 
WAVCIS,ioos:station:WAVCIS:CSI09:1,2010-05-02T20:00:00Z,29.1015,-89.9782,0.0,23.35,11111222 
WAVCIS,ioos:station:WAVCIS:CSI09:1,2010-05-02T21:00:00Z,29.1015,-89.9782,0.0,23.34,11111222 
WAVCIS,ioos:station:WAVCIS:CSI09:1,2010-05-02T22:00:00Z,29.1015,-89.9782,0.0,23.51,11111222 
WAVCIS,ioos:station:WAVCIS:CSI09:1,2010-05-02T23:00:00Z,29.1015,-89.9782,0.0,23.44,11111222 
WAVCIS,ioos:station:WAVCIS:CSI09:1,2010-05-03T00:00:00Z,29.1015,-89.9782,0.0,23.41,11111222 
WAVCIS,ioos:station:WAVCIS:CSI09:1,2010-05-03T01:00:00Z,29.1015,-89.9782,0.0,23.44,11111222 
WAVCIS,ioos:station:WAVCIS:CSI09:1,2010-05-03T02:00:00Z,29.1015,-89.9782,0.0,23.42,11111222 
WAVCIS,ioos:station:WAVCIS:CSI09:1,2010-05-03T03:00:00Z,29.1015,-89.9782,0.0,23.44,11111222 
WAVCIS,ioos:station:WAVCIS:CSI09:1,2010-05-03T04:00:00Z,29.1015,-89.9782,0.0,23.44,11111222 
WAVCIS,ioos:station:WAVCIS:CSI09:1,2010-05-03T05:00:00Z,29.1015,-89.9782,0.0,23.45,11111222 
WAVCIS,ioos:station:WAVCIS:CSI09:1,2010-05-03T06:00:00Z,29.1015,-89.9782,0.0,23.46,11111222 
WAVCIS,ioos:station:WAVCIS:CSI09:1,2010-05-03T07:00:00Z,29.1015,-89.9782,0.0,23.49,11111222 
WAVCIS,ioos:station:WAVCIS:CSI09:1,2010-05-03T08:00:00Z,29.1015,-89.9782,0.0,23.56,11111222 
WAVCIS,ioos:station:WAVCIS:CSI09:1,2010-05-03T09:00:00Z,29.1015,-89.9782,0.0,23.59,11111222 
WAVCIS,ioos:station:WAVCIS:CSI09:1,2010-05-03T10:00:00Z,29.1015,-89.9782,0.0,23.62,11111222 
WAVCIS,ioos:station:WAVCIS:CSI09:1,2010-05-03T11:00:00Z,29.1015,-89.9782,0.0,23.69,11111222 
WAVCIS,ioos:station:WAVCIS:CSI09:1,2010-05-03T12:00:00Z,29.1015,-89.9782,0.0,23.74,11111222 
WAVCIS,ioos:station:WAVCIS:CSI09:1,2010-05-03T13:00:00Z,29.1015,-89.9782,0.0,23.7,11111222 
WAVCIS,ioos:station:WAVCIS:CSI09:1,2010-05-03T14:00:00Z,29.1015,-89.9782,0.0,23.67,11111222 
WAVCIS,ioos:station:WAVCIS:CSI09:1,2010-05-03T15:00:00Z,29.1015,-89.9782,0.0,23.77,11111222 
WAVCIS,ioos:station:WAVCIS:CSI09:1,2010-05-03T16:00:00Z,29.1015,-89.9782,0.0,23.84,11111222 
WAVCIS,ioos:station:WAVCIS:CSI09:1,2010-05-03T17:00:00Z,29.1015,-89.9782,0.0,23.74,11111222 
WAVCIS,ioos:station:WAVCIS:CSI09:1,2010-05-03T18:00:00Z,29.1015,-89.9782,0.0,23.94,11111222 
WAVCIS,ioos:station:WAVCIS:CSI09:1,2010-05-03T19:00:00Z,29.1015,-89.9782,0.0,24.05,11111222 
WAVCIS,ioos:station:WAVCIS:CSI09:1,2010-05-03T20:00:00Z,29.1015,-89.9782,0.0,24.16,11111222 
WAVCIS,ioos:station:WAVCIS:CSI09:1,2010-05-03T21:00:00Z,29.1015,-89.9782,0.0,24.25,11111222 
WAVCIS,ioos:station:WAVCIS:CSI09:1,2010-05-03T22:00:00Z,29.1015,-89.9782,0.0,24.24,11111222 
WAVCIS,ioos:station:WAVCIS:CSI09:1,2010-05-03T23:00:00Z,29.1015,-89.9782,0.0,24.28,11111222 
WAVCIS,ioos:station:WAVCIS:CSI09:1,2010-05-04T00:00:00Z,29.1015,-89.9782,0.0,24.13,11111222 
WAVCIS,ioos:station:WAVCIS:CSI09:1,2010-05-04T01:00:00Z,29.1015,-89.9782,0.0,24.16,11111222 
WAVCIS,ioos:station:WAVCIS:CSI09:1,2010-05-04T02:00:00Z,29.1015,-89.9782,0.0,24.09,11111222 
WAVCIS,ioos:station:WAVCIS:CSI09:1,2010-05-04T03:00:00Z,29.1015,-89.9782,0.0,23.99,11111222 
WAVCIS,ioos:station:WAVCIS:CSI09:1,2010-05-04T04:00:00Z,29.1015,-89.9782,0.0,23.78,11111222 
WAVCIS,ioos:station:WAVCIS:CSI09:1,2010-05-04T05:00:00Z,29.1015,-89.9782,0.0,23.71,11111222 
WAVCIS,ioos:station:WAVCIS:CSI09:1,2010-05-04T06:00:00Z,29.1015,-89.9782,0.0,23.73,11111222 
WAVCIS,ioos:station:WAVCIS:CSI09:1,2010-05-04T07:00:00Z,29.1015,-89.9782,0.0,23.61,11111222 
WAVCIS,ioos:station:WAVCIS:CSI09:1,2010-05-04T08:00:00Z,29.1015,-89.9782,0.0,23.57,11111222 
WAVCIS,ioos:station:WAVCIS:CSI09:1,2010-05-04T09:00:00Z,29.1015,-89.9782,0.0,23.57,11111222 
WAVCIS,ioos:station:WAVCIS:CSI09:1,2010-05-04T10:00:00Z,29.1015,-89.9782,0.0,23.63,11111222 
WAVCIS,ioos:station:WAVCIS:CSI09:1,2010-05-04T11:00:00Z,29.1015,-89.9782,0.0,23.72,11111222 
WAVCIS,ioos:station:WAVCIS:CSI09:1,2010-05-04T12:00:00Z,29.1015,-89.9782,0.0,23.79,11111222 
WAVCIS,ioos:station:WAVCIS:CSI09:1,2010-05-04T13:00:00Z,29.1015,-89.9782,0.0,23.82,11111222 
WAVCIS,ioos:station:WAVCIS:CSI09:1,2010-05-04T14:00:00Z,29.1015,-89.9782,0.0,23.86,11111222 
WAVCIS,ioos:station:WAVCIS:CSI09:1,2010-05-04T15:00:00Z,29.1015,-89.9782,0.0,24.01,11111222 
WAVCIS,ioos:station:WAVCIS:CSI09:1,2010-05-04T16:00:00Z,29.1015,-89.9782,0.0,24.17,11111222 
WAVCIS,ioos:station:WAVCIS:CSI09:1,2010-05-04T17:00:00Z,29.1015,-89.9782,0.0,24.28,11111222 
WAVCIS,ioos:station:WAVCIS:CSI09:1,2010-05-04T18:00:00Z,29.1015,-89.9782,0.0,24.2,11111222 
WAVCIS,ioos:station:WAVCIS:CSI09:1,2010-05-04T19:00:00Z,29.1015,-89.9782,0.0,24.06,11111222 
WAVCIS,ioos:station:WAVCIS:CSI09:1,2010-05-04T20:00:00Z,29.1015,-89.9782,0.0,24.01,11111222 
WAVCIS,ioos:station:WAVCIS:CSI09:1,2010-05-04T21:00:00Z,29.1015,-89.9782,0.0,24.22,11111222 
WAVCIS,ioos:station:WAVCIS:CSI09:1,2010-05-04T22:00:00Z,29.1015,-89.9782,0.0,24.23,11111222 
WAVCIS,ioos:station:WAVCIS:CSI09:1,2010-05-04T23:00:00Z,29.1015,-89.9782,0.0,24.52,11111222 
WAVCIS,ioos:station:WAVCIS:CSI09:1,2010-05-05T00:00:00Z,29.1015,-89.9782,0.0,24.42,11111222 
WAVCIS,ioos:station:WAVCIS:CSI09:1,2010-05-05T01:00:00Z,29.1015,-89.9782,0.0,24.43,11111222 
WAVCIS,ioos:station:WAVCIS:CSI09:1,2010-05-05T02:00:00Z,29.1015,-89.9782,0.0,24.27,11111222 
WAVCIS,ioos:station:WAVCIS:CSI09:1,2010-05-05T03:00:00Z,29.1015,-89.9782,0.0,24.14,11111222 
WAVCIS,ioos:station:WAVCIS:CSI09:1,2010-05-05T04:00:00Z,29.1015,-89.9782,0.0,24.04,11111222 
WAVCIS,ioos:station:WAVCIS:CSI09:1,2010-05-05T05:00:00Z,29.1015,-89.9782,0.0,24.02,11111222 
WAVCIS,ioos:station:WAVCIS:CSI09:1,2010-05-05T06:00:00Z,29.1015,-89.9782,0.0,23.98,11111222 
WAVCIS,ioos:station:WAVCIS:CSI09:1,2010-05-05T07:00:00Z,29.1015,-89.9782,0.0,23.94,11111222 
WAVCIS,ioos:station:WAVCIS:CSI09:1,2010-05-05T08:00:00Z,29.1015,-89.9782,0.0,23.91,11111222 
WAVCIS,ioos:station:WAVCIS:CSI09:1,2010-05-05T09:00:00Z,29.1015,-89.9782,0.0,23.95,11111222 
WAVCIS,ioos:station:WAVCIS:CSI09:1,2010-05-05T10:00:00Z,29.1015,-89.9782,0.0,23.97,11111222 
WAVCIS,ioos:station:WAVCIS:CSI09:1,2010-05-05T11:00:00Z,29.1015,-89.9782,0.0,24.18,11111222 
WAVCIS,ioos:station:WAVCIS:CSI09:1,2010-05-05T12:00:00Z,29.1015,-89.9782,0.0,24.42,11111222 
WAVCIS,ioos:station:WAVCIS:CSI09:1,2010-05-05T13:00:00Z,29.1015,-89.9782,0.0,24.3,11111222 
WAVCIS,ioos:station:WAVCIS:CSI09:1,2010-05-05T14:00:00Z,29.1015,-89.9782,0.0,24.15,11111222 
WAVCIS,ioos:station:WAVCIS:CSI09:1,2010-05-05T15:00:00Z,29.1015,-89.9782,0.0,24.06,11111222 
WAVCIS,ioos:station:WAVCIS:CSI09:1,2010-05-05T16:00:00Z,29.1015,-89.9782,0.0,23.96,11111222 
WAVCIS,ioos:station:WAVCIS:CSI09:1,2010-05-05T17:00:00Z,29.1015,-89.9782,0.0,23.94,11111222 
WAVCIS,ioos:station:WAVCIS:CSI09:1,2010-05-05T18:00:00Z,29.1015,-89.9782,0.0,23.95,11111222 
WAVCIS,ioos:station:WAVCIS:CSI09:1,2010-05-05T19:00:00Z,29.1015,-89.9782,0.0,23.94,11111222 
WAVCIS,ioos:station:WAVCIS:CSI09:1,2010-05-05T20:00:00Z,29.1015,-89.9782,0.0,23.94,11111222 
WAVCIS,ioos:station:WAVCIS:CSI09:1,2010-05-05T21:00:00Z,29.1015,-89.9782,0.0,23.94,11111222 
WAVCIS,ioos:station:WAVCIS:CSI09:1,2010-05-05T22:00:00Z,29.1015,-89.9782,0.0,23.99,11111222 
WAVCIS,ioos:station:WAVCIS:CSI09:1,2010-05-05T23:00:00Z,29.1015,-89.9782,0.0,24.01,11111222 
WAVCIS,ioos:station:WAVCIS:CSI09:1,2010-05-06T00:00:00Z,29.1015,-89.9782,0.0,23.95,11111222 
WAVCIS,ioos:station:WAVCIS:CSI09:1,2010-05-06T01:00:00Z,29.1015,-89.9782,0.0,24.01,11111222 
WAVCIS,ioos:station:WAVCIS:CSI09:1,2010-05-06T02:00:00Z,29.1015,-89.9782,0.0,24.02,11111222 
WAVCIS,ioos:station:WAVCIS:CSI09:1,2010-05-06T03:00:00Z,29.1015,-89.9782,0.0,24.03,11111222 
WAVCIS,ioos:station:WAVCIS:CSI09:1,2010-05-06T04:00:00Z,29.1015,-89.9782,0.0,24.01,11111222 
WAVCIS,ioos:station:WAVCIS:CSI09:1,2010-05-06T05:00:00Z,29.1015,-89.9782,0.0,24.05,11111222 
WAVCIS,ioos:station:WAVCIS:CSI09:1,2010-05-06T06:00:00Z,29.1015,-89.9782,0.0,24.07,11111222 
WAVCIS,ioos:station:WAVCIS:CSI09:1,2010-05-06T07:00:00Z,29.1015,-89.9782,0.0,24.07,11111222 
WAVCIS,ioos:station:WAVCIS:CSI09:1,2010-05-06T08:00:00Z,29.1015,-89.9782,0.0,24.24,11111222 
WAVCIS,ioos:station:WAVCIS:CSI09:1,2010-05-06T09:00:00Z,29.1015,-89.9782,0.0,24.66,11111222 
WAVCIS,ioos:station:WAVCIS:CSI09:1,2010-05-06T10:00:00Z,29.1015,-89.9782,0.0,24.88,11111222 
WAVCIS,ioos:station:WAVCIS:CSI09:1,2010-05-06T11:00:00Z,29.1015,-89.9782,0.0,24.72,11111222 
WAVCIS,ioos:station:WAVCIS:CSI09:1,2010-05-06T12:00:00Z,29.1015,-89.9782,0.0,24.47,11111222 
WAVCIS,ioos:station:WAVCIS:CSI09:1,2010-05-06T13:00:00Z,29.1015,-89.9782,0.0,24.44,11111222 
WAVCIS,ioos:station:WAVCIS:CSI09:1,2010-05-06T14:00:00Z,29.1015,-89.9782,0.0,24.37,11111222 
WAVCIS,ioos:station:WAVCIS:CSI09:1,2010-05-06T15:00:00Z,29.1015,-89.9782,0.0,24.21,11111222 
WAVCIS,ioos:station:WAVCIS:CSI09:1,2010-05-06T16:00:00Z,29.1015,-89.9782,0.0,24.07,11111222 
WAVCIS,ioos:station:WAVCIS:CSI09:1,2010-05-06T17:00:00Z,29.1015,-89.9782,0.0,24.11,11111222 
WAVCIS,ioos:station:WAVCIS:CSI09:1,2010-05-06T18:00:00Z,29.1015,-89.9782,0.0,24.11,11111222 
WAVCIS,ioos:station:WAVCIS:CSI09:1,2010-05-06T19:00:00Z,29.1015,-89.9782,0.0,24.08,11111222 
WAVCIS,ioos:station:WAVCIS:CSI09:1,2010-05-06T20:00:00Z,29.1015,-89.9782,0.0,24.08,11111222 
WAVCIS,ioos:station:WAVCIS:CSI09:1,2010-05-06T21:00:00Z,29.1015,-89.9782,0.0,24.05,11111222 
WAVCIS,ioos:station:WAVCIS:CSI09:1,2010-05-06T22:00:00Z,29.1015,-89.9782,0.0,24.02,11111222 
WAVCIS,ioos:station:WAVCIS:CSI09:1,2010-05-06T23:00:00Z,29.1015,-89.9782,0.0,24.06,11111222 
WAVCIS,ioos:station:WAVCIS:CSI09:1,2010-05-07T00:00:00Z,29.1015,-89.9782,0.0,24.14,11111222 
WAVCIS,ioos:station:WAVCIS:CSI09:1,2010-05-07T01:00:00Z,29.1015,-89.9782,0.0,24.12,11111222 
WAVCIS,ioos:station:WAVCIS:CSI09:1,2010-05-07T02:00:00Z,29.1015,-89.9782,0.0,24.31,11111222 
WAVCIS,ioos:station:WAVCIS:CSI09:1,2010-05-07T03:00:00Z,29.1015,-89.9782,0.0,24.75,11111222 
WAVCIS,ioos:station:WAVCIS:CSI09:1,2010-05-07T04:00:00Z,29.1015,-89.9782,0.0,24.81,11111222 
WAVCIS,ioos:station:WAVCIS:CSI09:1,2010-05-07T05:00:00Z,29.1015,-89.9782,0.0,24.92,11111222 
WAVCIS,ioos:station:WAVCIS:CSI09:1,2010-05-07T06:00:00Z,29.1015,-89.9782,0.0,24.77,11111222 
WAVCIS,ioos:station:WAVCIS:CSI09:1,2010-05-07T07:00:00Z,29.1015,-89.9782,0.0,24.89,11111222 
WAVCIS,ioos:station:WAVCIS:CSI09:1,2010-05-07T08:00:00Z,29.1015,-89.9782,0.0,24.7,11111222 
WAVCIS,ioos:station:WAVCIS:CSI09:1,2010-05-07T09:00:00Z,29.1015,-89.9782,0.0,24.49,11111222 
WAVCIS,ioos:station:WAVCIS:CSI09:1,2010-05-07T10:00:00Z,29.1015,-89.9782,0.0,24.76,11111222 
WAVCIS,ioos:station:WAVCIS:CSI09:1,2010-05-07T11:00:00Z,29.1015,-89.9782,0.0,25.09,11111222 
WAVCIS,ioos:station:WAVCIS:CSI09:1,2010-05-07T12:00:00Z,29.1015,-89.9782,0.0,25.03,11111222 
WAVCIS,ioos:station:WAVCIS:CSI09:1,2010-05-07T13:00:00Z,29.1015,-89.9782,0.0,25.03,11111222 
WAVCIS,ioos:station:WAVCIS:CSI09:1,2010-05-07T14:00:00Z,29.1015,-89.9782,0.0,24.99,11111222 
WAVCIS,ioos:station:WAVCIS:CSI09:1,2010-05-07T15:00:00Z,29.1015,-89.9782,0.0,24.93,11111222 
WAVCIS,ioos:station:WAVCIS:CSI09:1,2010-05-07T16:00:00Z,29.1015,-89.9782,0.0,24.9,11111222 
WAVCIS,ioos:station:WAVCIS:CSI09:1,2010-05-07T17:00:00Z,29.1015,-89.9782,0.0,24.95,11111222 
WAVCIS,ioos:station:WAVCIS:CSI09:1,2010-05-07T18:00:00Z,29.1015,-89.9782,0.0,24.94,11111222 
WAVCIS,ioos:station:WAVCIS:CSI09:1,2010-05-07T19:00:00Z,29.1015,-89.9782,0.0,24.94,11111222 
WAVCIS,ioos:station:WAVCIS:CSI09:1,2010-05-07T20:00:00Z,29.1015,-89.9782,0.0,24.88,11111222 
WAVCIS,ioos:station:WAVCIS:CSI09:1,2010-05-07T21:00:00Z,29.1015,-89.9782,0.0,25.27,11111222 
WAVCIS,ioos:station:WAVCIS:CSI09:1,2010-05-07T22:00:00Z,29.1015,-89.9782,0.0,25.51,11111222 
WAVCIS,ioos:station:WAVCIS:CSI09:1,2010-05-07T23:00:00Z,29.1015,-89.9782,0.0,25.15,11111222 
WAVCIS,ioos:station:WAVCIS:CSI09:1,2010-05-08T00:00:00Z,29.1015,-89.9782,0.0,24.8,11111222 
WAVCIS,ioos:station:WAVCIS:CSI09:1,2010-05-08T01:00:00Z,29.1015,-89.9782,0.0,24.34,11111222 
WAVCIS,ioos:station:WAVCIS:CSI09:1,2010-05-08T02:00:00Z,29.1015,-89.9782,0.0,24.04,11111222 
WAVCIS,ioos:station:WAVCIS:CSI09:1,2010-05-08T03:00:00Z,29.1015,-89.9782,0.0,24.21,11111222 
WAVCIS,ioos:station:WAVCIS:CSI09:1,2010-05-08T04:00:00Z,29.1015,-89.9782,0.0,24.37,11111222 
WAVCIS,ioos:station:WAVCIS:CSI09:1,2010-05-08T05:00:00Z,29.1015,-89.9782,0.0,24.55,11111222 
WAVCIS,ioos:station:WAVCIS:CSI09:1,2010-05-08T06:00:00Z,29.1015,-89.9782,0.0,25.01,11111222 
WAVCIS,ioos:station:WAVCIS:CSI09:1,2010-05-08T07:00:00Z,29.1015,-89.9782,0.0,24.99,11111222 
WAVCIS,ioos:station:WAVCIS:CSI09:1,2010-05-08T08:00:00Z,29.1015,-89.9782,0.0,24.69,11111222 
WAVCIS,ioos:station:WAVCIS:CSI09:1,2010-05-08T09:00:00Z,29.1015,-89.9782,0.0,24.78,11111222 
WAVCIS,ioos:station:WAVCIS:CSI09:1,2010-05-08T10:00:00Z,29.1015,-89.9782,0.0,25.11,11111222 
WAVCIS,ioos:station:WAVCIS:CSI09:1,2010-05-08T11:00:00Z,29.1015,-89.9782,0.0,25.19,11111222 
WAVCIS,ioos:station:WAVCIS:CSI09:1,2010-05-08T12:00:00Z,29.1015,-89.9782,0.0,24.58,11111222 
WAVCIS,ioos:station:WAVCIS:CSI09:1,2010-05-08T13:00:00Z,29.1015,-89.9782,0.0,24.57,11111222 
WAVCIS,ioos:station:WAVCIS:CSI09:1,2010-05-08T14:00:00Z,29.1015,-89.9782,0.0,24.85,11111222 
WAVCIS,ioos:station:WAVCIS:CSI09:1,2010-05-08T15:00:00Z,29.1015,-89.9782,0.0,24.4,11111222 
WAVCIS,ioos:station:WAVCIS:CSI09:1,2010-05-08T16:00:00Z,29.1015,-89.9782,0.0,24.28,11111222 
WAVCIS,ioos:station:WAVCIS:CSI09:1,2010-05-08T17:00:00Z,29.1015,-89.9782,0.0,24.06,11111222 
WAVCIS,ioos:station:WAVCIS:CSI09:1,2010-05-08T18:00:00Z,29.1015,-89.9782,0.0,24.09,11111222 
WAVCIS,ioos:station:WAVCIS:CSI09:1,2010-05-08T19:00:00Z,29.1015,-89.9782,0.0,24.2,11111222 
WAVCIS,ioos:station:WAVCIS:CSI09:1,2010-05-08T20:00:00Z,29.1015,-89.9782,0.0,24.48,11111222 
WAVCIS,ioos:station:WAVCIS:CSI09:1,2010-05-08T21:00:00Z,29.1015,-89.9782,0.0,24.53,11111222 
WAVCIS,ioos:station:WAVCIS:CSI09:1,2010-05-08T22:00:00Z,29.1015,-89.9782,0.0,24.67,11111222 
WAVCIS,ioos:station:WAVCIS:CSI09:1,2010-05-08T23:00:00Z,29.1015,-89.9782,0.0,24.91,11111222 
WAVCIS,ioos:station:WAVCIS:CSI09:1,2010-05-09T00:00:00Z,29.1015,-89.9782,0.0,24.34,11111222 
WAVCIS,ioos:station:WAVCIS:CSI09:1,2010-05-09T01:00:00Z,29.1015,-89.9782,0.0,24.67,11111222 
WAVCIS,ioos:station:WAVCIS:CSI09:1,2010-05-09T02:00:00Z,29.1015,-89.9782,0.0,25.08,11111222 
WAVCIS,ioos:station:WAVCIS:CSI09:1,2010-05-09T03:00:00Z,29.1015,-89.9782,0.0,24.81,11111222 
WAVCIS,ioos:station:WAVCIS:CSI09:1,2010-05-09T04:00:00Z,29.1015,-89.9782,0.0,24.56,11111222 
WAVCIS,ioos:station:WAVCIS:CSI09:1,2010-05-09T05:00:00Z,29.1015,-89.9782,0.0,24.4,11111222 
WAVCIS,ioos:station:WAVCIS:CSI09:1,2010-05-09T06:00:00Z,29.1015,-89.9782,0.0,24.21,11111222 
WAVCIS,ioos:station:WAVCIS:CSI09:1,2010-05-09T07:00:00Z,29.1015,-89.9782,0.0,24.18,11111222 
WAVCIS,ioos:station:WAVCIS:CSI09:1,2010-05-09T08:00:00Z,29.1015,-89.9782,0.0,24.35,11111222 
WAVCIS,ioos:station:WAVCIS:CSI09:1,2010-05-09T09:00:00Z,29.1015,-89.9782,0.0,24.52,11111222 
WAVCIS,ioos:station:WAVCIS:CSI09:1,2010-05-09T10:00:00Z,29.1015,-89.9782,0.0,24.73,11111222 
WAVCIS,ioos:station:WAVCIS:CSI09:1,2010-05-09T11:00:00Z,29.1015,-89.9782,0.0,24.67,11111222 
WAVCIS,ioos:station:WAVCIS:CSI09:1,2010-05-09T12:00:00Z,29.1015,-89.9782,0.0,24.8,11111222 
WAVCIS,ioos:station:WAVCIS:CSI09:1,2010-05-09T13:00:00Z,29.1015,-89.9782,0.0,24.77,11111222 
WAVCIS,ioos:station:WAVCIS:CSI09:1,2010-05-09T14:00:00Z,29.1015,-89.9782,0.0,24.79,11111222 
WAVCIS,ioos:station:WAVCIS:CSI09:1,2010-05-09T15:00:00Z,29.1015,-89.9782,0.0,25.14,11111222 
WAVCIS,ioos:station:WAVCIS:CSI09:1,2010-05-09T16:00:00Z,29.1015,-89.9782,0.0,25.43,11111222 
WAVCIS,ioos:station:WAVCIS:CSI09:1,2010-05-09T17:00:00Z,29.1015,-89.9782,0.0,25.38,11111222 
WAVCIS,ioos:station:WAVCIS:CSI09:1,2010-05-09T18:00:00Z,29.1015,-89.9782,0.0,25.31,11111222 
WAVCIS,ioos:station:WAVCIS:CSI09:1,2010-05-09T19:00:00Z,29.1015,-89.9782,0.0,25.69,11111222 
WAVCIS,ioos:station:WAVCIS:CSI09:1,2010-05-09T20:00:00Z,29.1015,-89.9782,0.0,25.57,11111222 
WAVCIS,ioos:station:WAVCIS:CSI09:1,2010-05-09T21:00:00Z,29.1015,-89.9782,0.0,25.49,11111222 
WAVCIS,ioos:station:WAVCIS:CSI09:1,2010-05-09T22:00:00Z,29.1015,-89.9782,0.0,25.74,11111222 
WAVCIS,ioos:station:WAVCIS:CSI09:1,2010-05-09T23:00:00Z,29.1015,-89.9782,0.0,25.66,11111222 
WAVCIS,ioos:station:WAVCIS:CSI09:1,2010-05-10T00:00:00Z,29.1015,-89.9782,0.0,25.56,11111222 
WAVCIS,ioos:station:WAVCIS:CSI09:1,2010-05-10T01:00:00Z,29.1015,-89.9782,0.0,25.5,11111222 
WAVCIS,ioos:station:WAVCIS:CSI09:1,2010-05-10T02:00:00Z,29.1015,-89.9782,0.0,25.47,11111222 
WAVCIS,ioos:station:WAVCIS:CSI09:1,2010-05-10T03:00:00Z,29.1015,-89.9782,0.0,25.37,11111222 
WAVCIS,ioos:station:WAVCIS:CSI09:1,2010-05-10T04:00:00Z,29.1015,-89.9782,0.0,25.34,11111222 
WAVCIS,ioos:station:WAVCIS:CSI09:1,2010-05-10T05:00:00Z,29.1015,-89.9782,0.0,25.2,11111222 
WAVCIS,ioos:station:WAVCIS:CSI09:1,2010-05-10T06:00:00Z,29.1015,-89.9782,0.0,25.1,11111222 
WAVCIS,ioos:station:WAVCIS:CSI09:1,2010-05-10T07:00:00Z,29.1015,-89.9782,0.0,25.02,11111222 
WAVCIS,ioos:station:WAVCIS:CSI09:1,2010-05-10T08:00:00Z,29.1015,-89.9782,0.0,24.98,11111222 
WAVCIS,ioos:station:WAVCIS:CSI09:1,2010-05-10T09:00:00Z,29.1015,-89.9782,0.0,25.04,11111222 
WAVCIS,ioos:station:WAVCIS:CSI09:1,2010-05-10T10:00:00Z,29.1015,-89.9782,0.0,24.81,11111222 
WAVCIS,ioos:station:WAVCIS:CSI09:1,2010-05-10T11:00:00Z,29.1015,-89.9782,0.0,24.85,11111222 
WAVCIS,ioos:station:WAVCIS:CSI09:1,2010-05-10T12:00:00Z,29.1015,-89.9782,0.0,24.64,11111222 
WAVCIS,ioos:station:WAVCIS:CSI09:1,2010-05-10T13:00:00Z,29.1015,-89.9782,0.0,24.58,11111222 
WAVCIS,ioos:station:WAVCIS:CSI09:1,2010-05-10T14:00:00Z,29.1015,-89.9782,0.0,24.64,11111222 
WAVCIS,ioos:station:WAVCIS:CSI09:1,2010-05-10T15:00:00Z,29.1015,-89.9782,0.0,24.69,11111222 
WAVCIS,ioos:station:WAVCIS:CSI09:1,2010-05-10T16:00:00Z,29.1015,-89.9782,0.0,24.78,11111222 
WAVCIS,ioos:station:WAVCIS:CSI09:1,2010-05-10T17:00:00Z,29.1015,-89.9782,0.0,24.88,11111222 
WAVCIS,ioos:station:WAVCIS:CSI09:1,2010-05-10T18:00:00Z,29.1015,-89.9782,0.0,24.94,11111222 
WAVCIS,ioos:station:WAVCIS:CSI09:1,2010-05-10T19:00:00Z,29.1015,-89.9782,0.0,24.91,11111222 
WAVCIS,ioos:station:WAVCIS:CSI09:1,2010-05-10T20:00:00Z,29.1015,-89.9782,0.0,25.01,11111222 
WAVCIS,ioos:station:WAVCIS:CSI09:1,2010-05-10T21:00:00Z,29.1015,-89.9782,0.0,24.88,11111222 
WAVCIS,ioos:station:WAVCIS:CSI09:1,2010-05-10T22:00:00Z,29.1015,-89.9782,0.0,24.88,11111222 
WAVCIS,ioos:station:WAVCIS:CSI09:1,2010-05-10T23:00:00Z,29.1015,-89.9782,0.0,24.9,11111222 
WAVCIS,ioos:station:WAVCIS:CSI09:1,2010-05-11T00:00:00Z,29.1015,-89.9782,0.0,24.88,11111222 
WAVCIS,ioos:station:WAVCIS:CSI09:1,2010-05-11T01:00:00Z,29.1015,-89.9782,0.0,24.7,11111222 
WAVCIS,ioos:station:WAVCIS:CSI09:1,2010-05-11T02:00:00Z,29.1015,-89.9782,0.0,24.44,11111222 
WAVCIS,ioos:station:WAVCIS:CSI09:1,2010-05-11T03:00:00Z,29.1015,-89.9782,0.0,24.38,11111222 
WAVCIS,ioos:station:WAVCIS:CSI09:1,2010-05-11T04:00:00Z,29.1015,-89.9782,0.0,24.13,11111222 
WAVCIS,ioos:station:WAVCIS:CSI09:1,2010-05-11T05:00:00Z,29.1015,-89.9782,0.0,23.98,11111222 
WAVCIS,ioos:station:WAVCIS:CSI09:1,2010-05-11T06:00:00Z,29.1015,-89.9782,0.0,23.98,11111222 
WAVCIS,ioos:station:WAVCIS:CSI09:1,2010-05-11T07:00:00Z,29.1015,-89.9782,0.0,23.97,11111222 
WAVCIS,ioos:station:WAVCIS:CSI09:1,2010-05-11T08:00:00Z,29.1015,-89.9782,0.0,23.96,11111222 
WAVCIS,ioos:station:WAVCIS:CSI09:1,2010-05-11T09:00:00Z,29.1015,-89.9782,0.0,23.91,11111222 
WAVCIS,ioos:station:WAVCIS:CSI09:1,2010-05-11T10:00:00Z,29.1015,-89.9782,0.0,23.86,11111222 
WAVCIS,ioos:station:WAVCIS:CSI09:1,2010-05-11T11:00:00Z,29.1015,-89.9782,0.0,23.85,11111222 
WAVCIS,ioos:station:WAVCIS:CSI09:1,2010-05-11T12:00:00Z,29.1015,-89.9782,0.0,23.84,11111222 
WAVCIS,ioos:station:WAVCIS:CSI09:1,2010-05-11T13:00:00Z,29.1015,-89.9782,0.0,23.86,11111222 
WAVCIS,ioos:station:WAVCIS:CSI09:1,2010-05-11T14:00:00Z,29.1015,-89.9782,0.0,23.92,11111222 
WAVCIS,ioos:station:WAVCIS:CSI09:1,2010-05-11T15:00:00Z,29.1015,-89.9782,0.0,24.03,11111222 
WAVCIS,ioos:station:WAVCIS:CSI09:1,2010-05-11T16:00:00Z,29.1015,-89.9782,0.0,24.06,11111222 